Terminal Aerodrome Forecast
Issued by NWS

Home | Current Version | Previous Version | Graphics & Text | Print | Product List | Glossary On
Versions: 1 2 3 4 5 6 7 8 9 10 11 12 13 14 15 16 17
000
FTUS43 KGRB 142000 AAA
TAFATW
TAF AMD
KATW 142006Z 1420/1518 34012G22KT P6SM -SN BKN025 OVC050
     FM142200 34012G22KT P6SM BKN035 OVC100
     FM150100 35010KT P6SM SCT050 OVC120
     FM151200 34008KT P6SM BKN050
      TEMPO 1512/1514 -SN=

USA.gov is the U.S. government's official web portal to all federal, state and local government web resources and services.